Wind_Speed
39 37 36 35 35 34 34 33 32 32 31 30 29 30 31 31 31 30 30 30 29 29 28 27 27 27 26 25 24 24 24 24 23 23 22 22 22 23 23 23 23 23 24 24 24 24 24 25 26 27 28 28 29 29 29 28 27 27 28 29 30 30 31 31 29 27 26 26 26 26 25 23 23 24 25 26 26 26 26 25 25 25 26 26 24 23 22
39 39 38 39 39 39 38 37 36 35 35 34 33 33 32 33 33 33 32 33 33 32 32 31 30 29 29 27 26 26 26 26 25 25 25 25 25 25 26 26 26 26 26 26 26 26 27 27 28 29 29 30 30 31 32 32 32 32 31 31 31 32 32 33 33 32 31 31 31 31 29 26 25 25 25 25 26 25 25 26 27 27 26 25 22 21 24
35 37 39 40 40 40 41 41 41 40 39 38 37 36 36 36 35 35 35 36 37 36 36 34 33 33 32 31 30 29 29 29 28 28 28 28 29 28 28 28 28 28 28 28 29 30 30 30 31 31 32 33 34 34 35 36 37 37 37 37 36 35 34 34 35 35 35 35 35 35 34 30 28 27 27 27 27 26 26 28 29 28 26 25 23 24 29
29 30 33 35 35 37 40 41 41 41 41 40 40 39 39 39 38 37 37 38 39 40 40 38 37 36 36 35 33 32 32 31 31 30 30 31 31 31 31 31 31 31 32 32 33 33 34 34 35 35 36 36 37 38 39 39 40 40 40 40 41 40 39 38 38 38 38 38 38 38 38 36 34 33 33 31 30 28 28 29 30 30 30 30 29 28 31
31 29 28 28 28 30 32 32 32 34 36 37 38 38 39 40 40 40 40 40 41 42 43 43 41 39 38 37 36 35 34 33 32 32 33 34 34 34 34 35 35 36 36 36 37 38 38 39 40 40 40 40 41 41 42 42 42 42 42 42 43 43 43 43 42 41 41 41 41 41 41 40 39 39 38 36 34 32 31 31 33 34 34 34 35 35 36
34 34 33 31 30 29 27 26 27 29 30 31 32 32 33 35 36 37 40 41 42 43 44 45 45 43 41 40 39 38 37 36 36 36 37 37 37 37 38 38 39 39 40 40 41 42 43 43 43 44 44 44 45 45 45 45 45 45 45 44 44 44 43 43 43 43 43 43 44 44 44 44 43 43 42 41 39 36 33 33 35 37 38 38 38 38 38
36 37 36 37 37 34 30 29 29 30 31 31 31 31 31 31 31 32 35 37 39 41 43 44 44 44 42 40 40 39 39 39 39 40 40 40 41 41 41 41 41 42 43 44 45 45 46 47 47 47 48 49 49 50 49 49 49 48 46 45 45 45 45 44 44 44 44 45 45 45 46 46 45 46 45 44 43 41 38 37 37 40 42 42 41 39 38
38 38 38 39 38 36 33 33 32 31 31 32 32 31 31 31 32 32 33 34 35 37 39 41 42 42 42 41 41 41 41 41 41 41 42 42 43 43 43 44 44 45 46 47 48 49 50 50 51 51 52 53 54 53 53 52 52 50 49 48 47 47 47 47 46 45 45 45 45 45 45 46 46 46 46 45 45 44 44 44 44 44 43 42 40 39 38
40 40 40 40 39 38 36 35 34 33 32 32 32 32 32 32 33 33 34 34 34 34 35 37 38 39 40 41 42 42 42 42 43 43 43 43 44 45 45 46 47 48 49 50 51 51 51 52 53 54 55 56 56 55 55 54 54 53 52 52 51 51 50 49 47 46 45 45 44 44 44 45 45 45 45 45 46 46 45 44 44 45 46 45 43 42 41
42 41 41 41 40 39 37 36 36 36 36 35 35 35 35 36 36 36 36 36 36 36 37 37 37 38 39 40 41 42 43 44 44 45 45 46 47 48 49 49 50 51 52 53 54 54 53 54 55 56 57 57 57 57 57 57 57 56 56 56 56 56 55 54 52 50 49 48 47 45 45 44 44 44 43 45 47 47 46 43 40 41 44 46 46 46 45
40 40 41 41 40 38 36 35 35 36 37 37 37 38 39 39 39 39 38 38 38 39 40 40 40 41 41 42 43 43 44 45 46 47 48 49 50 51 52 53 54 54 55 56 57 57 57 58 59 59 60 60 60 60 60 60 60 60 60 61 61 61 61 60 58 56 54 52 50 48 47 45 45 44 43 44 46 47 47 46 43 41 41 42 44 44 43
36 35 36 36 36 36 35 34 34 35 36 37 38 39 39 38 37 37 38 39 39 39 40 41 41 42 42 42 43 43 44 45 46 47 48 49 50 51 52 53 54 55 56 57 58 59 60 61 62 62 63 63 63 64 63 63 62 63 64 64 64 63 62 61 60 59 56 54 52 51 49 48 47 45 44 44 46 47 47 48 48 48 47 47 46 43 42
34 34 34 34 35 36 36 35 34 35 36 37 38 38 37 36 36 36 37 38 38 38 39 39 40 41 41 42 42 42 43 44 45 46 47 48 50 51 52 53 54 55 56 57 59 60 60 61 62 62 63 63 63 64 63 62 61 61 61 61 61 60 59 58 58 57 56 54 52 50 49 49 49 48 46 44 45 46 47 47 47 48 49 49 48 44 43
42 41 40 39 40 41 40 40 38 36 37 38 38 37 38 38 38 39 39 39 40 40 41 41 41 42 43 43 44 44 45 46 46 47 48 50 51 52 53 54 54 55 56 57 58 59 60 61 61 61 62 62 62 62 62 61 61 61 60 59 58 58 58 57 57 57 56 54 53 51 50 49 49 50 49 48 48 47 47 46 45 43 43 45 46 45 44
45 45 45 44 44 43 42 42 42 41 41 40 40 40 40 41 41 42 42 43 43 43 44 44 45 45 46 46 47 47 48 49 49 50 51 52 53 53 54 55 55 55 56 56 57 58 59 59 60 60 60 61 61 61 60 60 61 62 61 60 59 57 57 56 56 55 55 54 53 52 51 50 50 50 51 52 52 51 51 49 47 44 42 42 44 45 44
43 44 45 45 45 45 45 44 44 44 44 44 43 43 43 43 44 44 45 45 46 47 47 48 48 48 49 49 50 50 51 52 53 54 54 55 55 55 55 55 55 55 55 55 55 55 56 56 56 57 58 59 59 59 59 60 61 62 62 62 61 60 60 59 58 58 58 57 56 54 53 51 50 50 50 52 53 54 54 53 52 50 48 47 47 48 47
43 43 43 43 44 45 46 46 46 45 45 45 44 44 44 45 45 46 46 47 48 48 49 49 50 50 51 51 52 52 52 53 53 53 53 53 53 52 52 52 52 52 52 52 51 51 52 53 53 54 55 57 57 58 58 60 61 62 63 63 63 63 62 62 61 61 61 61 61 59 57 56 54 52 51 51 52 52 53 54 55 54 54 54 53 53 53
41 41 42 42 41 42 43 44 44 44 44 43 43 44 44 45 45 46 47 48 48 48 49 49 49 49 49 49 50 50 50 50 51 50 50 50 49 49 49 49 49 49 50 50 50 51 51 53 54 55 57 58 59 60 61 62 63 64 64 64 64 63 63 62 62 62 61 61 61 61 60 59 58 56 55 54 53 52 52 53 53 54 54 54 54 54 54
35 36 38 39 39 40 40 41 41 42 43 43 43 44 44 44 45 45 45 45 45 45 45 45 45 45 45 45 46 46 47 47 47 48 48 48 48 49 49 50 50 51 51 52 52 53 55 56 58 60 61 63 63 63 64 64 64 65 65 66 66 65 65 65 65 64 63 62 61 61 60 60 58 57 57 56 55 54 53 52 51 51 50 50 50 49 49
31 32 33 34 35 36 37 37 38 39 40 41 41 41 41 41 41 41 41 41 41 41 41 41 42 42 43 43 44 45 46 46 47 48 48 49 49 50 51 52 54 55 56 57 58 59 60 61 62 63 64 65 65 65 64 64 64 64 65 66 66 66 67 67 67 66 65 65 64 63 62 62 60 59 57 55 54 55 54 54 53 51 50 50 49 49 49
27 28 29 30 31 32 33 33 35 36 36 37 37 38 38 37 37 37 37 37 38 38 39 40 40 41 43 43 44 44 45 47 48 48 49 51 52 54 55 57 59 60 61 61 61 61 62 62 62 63 63 64 64 64 64 64 64 64 64 65 65 65 65 66 66 65 65 65 64 64 64 63 62 62 60 57 56 57 56 54 53 53 51 51 50 50 51
23 24 25 26 27 28 28 29 30 31 32 33 34 35 36 37 38 38 39 39 40 41 41 42 43 44 45 46 47 48 50 52 52 53 54 55 57 58 59 60 60 60 59 59 59 59 59 59 60 61 61 62 63 64 64 65 65 65 65 65 65 66 66 65 65 65 65 65 64 64 64 63 62 62 61 59 59 58 55 53 52 51 49 47 46 47 50
19 20 20 21 22 23 23 24 25 26 27 28 29 30 32 33 35 37 39 41 43 44 45 47 48 49 50 51 52 53 54 55 55 54 54 54 54 55 55 55 55 55 55 55 55 56 57 57 57 58 58 59 59 60 61 62 63 64 65 66 65 66 66 67 67 67 67 67 66 66 65 64 63 62 61 59 58 57 56 54 54 52 50 47 46 47 49
16 16 17 17 18 19 20 21 21 22 23 24 25 26 27 29 30 32 34 35 37 39 41 42 43 44 46 47 47 48 48 49 48 48 48 49 49 49 49 49 50 50 50 50 50 50 49 49 48 48 49 50 52 54 55 56 57 59 60 61 62 62 63 64 65 66 67 67 67 67 66 65 64 63 62 59 57 56 55 55 55 55 54 53 52 52 51
17 17 17 18 19 20 20 21 22 22 23 24 24 25 26 28 29 30 31 33 34 35 36 37 38 39 40 40 41 42 42 42 43 43 44 45 45 45 45 45 45 44 43 42 40 38 37 36 36 37 38 39 41 43 45 48 50 52 54 55 56 55 55 55 56 58 60 62 63 65 66 65 65 64 63 61 59 57 55 55 55 55 55 55 57 58 57
18 18 18 19 20 20 21 21 22 22 23 23 24 25 26 27 28 29 30 31 32 33 34 35 36 36 37 37 38 38 38 39 39 40 40 40 39 39 39 38 36 34 31 29 28 28 28 28 28 28 29 29 30 30 31 33 35 39 42 45 47 48 47 46 46 46 48 50 53 55 58 61 62 62 61 61 61 59 57 56 56 56 55 54 55 57 59
17 18 19 19 20 20 20 21 21 21 21 22 23 24 25 26 27 28 29 30 30 31 32 33 34 35 35 35 35 35 36 36 36 35 34 33 33 32 30 27 24 22 22 23 23 24 24 24 23 24 24 25 24 24 24 24 24 25 28 31 35 38 41 41 41 41 40 41 42 45 48 51 54 55 56 57 58 59 58 57 56 56 55 54 54 54 55
17 18 18 18 19 19 19 19 19 19 20 21 22 23 24 25 26 27 28 29 30 31 32 32 33 33 33 31 30 30 30 29 28 27 26 25 23 21 19 18 17 18 19 20 20 20 20 20 21 22 23 22 22 22 22 22 22 22 22 23 25 28 32 35 37 38 38 38 37 37 39 42 44 46 48 50 52 54 55 56 56 55 54 54 54 52 50
17 17 17 18 18 18 18 18 18 19 20 21 22 23 24 24 25 26 27 28 29 30 30 30 29 27 25 23 23 23 23 21 20 20 18 16 14 13 13 14 14 15 15 15 15 17 18 19 20 20 20 20 20 20 19 18 19 19 19 20 21 22 25 27 30 33 35 37 37 36 35 36 37 38 39 40 42 45 47 50 51 50 47 48 51 49 47
17 17 18 18 18 18 18 18 19 19 20 21 22 23 23 24 25 25 26 27 27 27 26 24 21 18 16 17 17 17 15 14 12 11 9 8 9 10 11 12 12 12 11 12 14 16 17 18 17 17 16 16 15 14 14 14 15 15 16 17 18 20 22 24 26 29 30 32 34 35 36 36 35 34 33 33 34 36 38 41 43 43 41 40 40 38 39
18 17 18 18 18 18 18 18 19 20 21 21 22 22 23 24 24 25 25 24 23 21 18 15 13 12 13 13 12 10 8 7 5 5 5 6 8 10 11 11 11 11 12 13 14 15 15 15 14 13 11 10 10 12 13 15 15 16 17 18 19 21 22 23 25 28 29 30 30 31 32 34 34 34 33 32 31 31 31 33 35 38 39 39 36 34 35
18 18 18 18 18 18 18 18 19 20 20 21 21 22 23 23 23 23 22 20 17 14 12 10 10 11 11 9 7 6 5 4 3 3 4 6 7 8 9 10 11 11 12 12 12 13 12 12 11 10 10 9 11 13 16 17 17 18 18 19 21 23 23 23 23 24 25 26 27 27 27 28 30 31 32 32 31 30 29 30 31 34 37 38 38 37 38
18 18 18 19 19 19 19 19 19 19 20 20 21 22 22 22 21 20 17 15 12 10 9 9 9 10 8 6 5 6 6 4 3 4 5 6 6 6 7 8 9 10 10 10 9 10 11 11 10 11 11 12 13 14 15 16 17 18 19 20 22 23 23 20 16 15 17 19 20 21 22 23 25 27 28 30 31 30 30 29 30 33 38 40 39 37 38
18 19 19 19 19 19 18 18 18 19 20 20 20 21 20 19 17 16 14 12 10 9 9 8 9 10 8 6 6 6 4 2 2 4 4 4 4 5 7 8 9 9 9 9 8 9 11 12 12 12 12 12 12 12 13 13 15 17 18 20 22 23 21 14 8 6 9 10 11 11 13 15 18 21 23 26 28 29 30 30 30 33 39 42 40 36 36
19 19 19 19 19 18 18 18 18 18 19 19 19 19 17 15 14 13 12 11 10 9 9 9 11 12 10 8 7 6 3 1 0 1 2 2 3 5 7 9 10 9 8 7 7 9 10 11 12 12 12 12 11 11 12 12 12 15 17 19 21 22 18 10 4 4 4 6 7 7 7 9 12 15 18 22 25 28 30 30 30 33 39 42 38 34 32
18 19 19 19 18 18 17 17 17 18 18 18 17 16 14 12 12 11 11 9 9 10 9 10 12 13 12 11 9 6 4 2 1 1 1 1 2 5 7 9 10 10 9 8 9 10 11 11 11 12 12 13 13 13 13 11 11 12 15 17 19 21 19 12 6 6 5 6 7 8 8 8 9 11 14 19 23 26 28 30 29 32 40 44 39 32 30
18 18 18 18 18 17 17 16 16 17 16 16 15 14 12 11 10 10 10 9 9 9 10 11 12 12 12 12 11 7 4 3 1 1 1 3 4 5 6 8 10 11 11 11 12 14 14 13 12 11 11 12 14 14 12 11 9 10 13 15 17 19 21 19 14 8 4 3 4 5 7 9 10 12 13 16 19 22 25 29 29 32 40 47 42 32 27
17 18 18 18 17 17 16 15 15 15 15 14 13 12 11 10 9 9 9 9 9 10 10 11 12 11 10 12 13 10 7 5 3 1 2 4 6 7 7 8 9 9 11 12 13 15 15 15 13 11 10 11 12 13 12 11 9 10 12 14 16 17 19 21 20 17 11 6 4 3 3 4 8 10 10 12 16 19 23 27 29 32 38 44 42 33 28
17 17 17 17 16 16 15 14 14 14 13 13 12 11 10 10 8 8 9 9 10 11 10 11 12 11 10 11 14 13 10 8 7 4 4 5 7 8 8 8 9 8 9 11 12 13 14 15 14 12 11 11 12 12 12 11 11 11 12 13 14 16 17 18 20 21 18 14 11 9 9 5 1 7 12 17 21 22 22 25 28 31 33 36 35 30 27
16 16 16 16 16 15 14 13 13 13 12 12 11 10 11 10 9 8 8 9 10 11 10 10 10 9 8 8 12 13 10 9 8 6 6 7 8 8 8 8 8 8 8 8 9 10 12 13 14 14 14 13 14 13 13 12 12 13 13 13 14 15 16 17 18 19 20 18 16 14 13 12 9 14 21 24 23 22 23 25 26 27 27 27 26 23 20
16 15 15 15 15 14 13 12 12 12 12 11 10 11 12 11 10 9 8 8 9 11 10 9 9 8 7 8 11 12 10 10 9 8 8 8 8 9 9 8 8 8 6 6 7 8 9 10 12 14 14 15 15 16 15 14 14 14 14 14 14 15 16 17 17 17 18 18 18 17 16 16 14 17 21 21 18 18 21 22 22 22 22 20 19 17 16
16 15 14 14 13 12 12 12 12 12 12 11 11 11 12 12 12 11 10 9 9 10 10 9 9 10 10 11 12 12 11 11 10 10 9 9 9 9 9 8 8 8 7 5 5 6 6 7 9 11 12 13 15 16 16 17 17 16 15 14 14 14 15 16 17 16 16 16 17 17 17 17 16 15 16 16 16 17 19 20 19 18 16 15 15 16 16
16 15 14 13 13 12 12 12 12 12 12 11 11 12 12 13 13 12 11 10 9 10 10 10 10 12 13 13 13 13 13 12 12 11 9 9 9 9 8 8 8 8 7 5 5 5 5 6 6 7 9 10 11 13 14 16 17 17 17 17 16 15 15 15 15 16 15 15 15 14 15 15 15 14 13 13 13 14 16 16 16 14 13 13 15 15 15
15 15 14 14 14 13 12 12 12 12 12 12 12 12 13 13 13 13 13 11 10 10 11 11 11 12 12 13 13 12 12 11 10 9 8 8 8 8 7 6 6 6 6 6 6 5 6 6 6 6 7 7 8 9 11 12 14 15 16 17 17 17 17 16 14 14 13 13 12 12 12 12 12 12 12 12 12 12 12 12 12 12 13 14 14 14 14
16 16 15 15 14 13 13 12 12 12 12 13 13 13 14 14 14 14 14 13 11 11 11 11 10 10 10 11 10 10 9 9 8 7 7 8 8 7 6 6 5 5 5 6 6 6 7 7 7 7 7 7 7 8 8 9 10 12 13 14 15 16 17 17 16 15 13 11 10 9 9 10 9 9 9 9 10 10 11 11 12 13 13 14 14 14 14
16 16 16 15 14 14 13 13 13 13 13 14 14 15 15 15 15 15 15 14 13 11 11 11 10 10 10 10 10 9 9 9 9 9 9 8 8 7 7 6 6 5 5 5 6 6 7 8 8 8 8 8 8 8 8 9 9 9 10 11 12 13 14 15 16 16 16 14 13 10 8 7 6 6 6 5 5 6 6 7 8 9 10 11 12 12 13
17 16 16 15 15 14 14 14 14 14 15 16 16 16 16 16 16 16 16 15 14 13 12 11 11 11 12 12 12 12 12 12 11 11 11 10 9 9 9 8 7 6 6 5 5 6 7 8 8 8 8 8 9 9 10 10 10 9 9 9 9 10 11 12 13 14 14 15 15 14 12 10 8 6 4 3 3 3 4 5 6 7 8 9 11 12 13
19 17 16 16 15 15 15 15 15 16 17 17 18 18 18 18 18 18 17 17 16 15 14 13 13 13 14 15 15 15 15 15 14 13 13 12 11 11 11 10 9 8 8 7 6 6 6 7 7 8 8 9 9 10 10 10 10 10 10 10 9 9 9 9 9 10 11 11 12 13 13 12 11 9 7 5 4 3 4 6 7 8 9 10 11 13 14
20 19 17 16 16 16 16 16 16 17 18 18 18 19 19 20 20 20 19 19 18 17 17 16 16 16 17 17 18 18 17 17 16 15 15 14 13 13 12 12 11 10 9 9 8 7 7 7 7 7 8 8 9 10 10 10 11 11 11 11 11 10 10 9 9 9 8 8 8 9 9 9 10 10 9 8 6 5 4 5 6 8 10 12 13 14 16
19 18 17 17 17 17 17 17 17 18 18 18 19 20 21 22 22 22 22 22 21 20 20 19 19 19 19 19 20 20 19 19 18 17 16 16 15 14 13 13 12 11 11 10 10 10 9 9 8 8 8 8 9 9 9 10 10 10 10 10 10 10 10 10 9 9 9 8 7 7 6 6 5 5 6 6 6 6 5 5 6 8 10 12 13 14 15
18 18 18 17 17 17 17 18 18 19 18 19 19 21 22 23 25 25 24 24 24 24 23 22 22 22 21 21 21 21 21 20 19 19 18 18 17 16 16 15 14 13 12 12 11 11 10 10 10 9 9 9 10 10 10 10 10 10 10 10 10 10 10 10 10 9 9 8 8 8 7 6 5 3 2 1 1 1 2 4 5 7 9 10 12 13 14
18 18 18 18 17 17 17 18 19 20 20 19 20 21 23 25 27 27 27 26 26 27 26 26 25 25 24 24 23 22 22 21 21 21 20 20 20 19 18 18 17 16 15 14 13 12 12 11 11 10 10 10 11 11 11 11 11 11 11 10 10 10 10 10 9 9 9 9 9 9 9 9 8 7 6 6 5 5 5 5 5 6 8 10 11 13 14
Wind_Direction
229 229 230 231 232 232 232 233 234 235 236 236 234 233 234 237 238 238 240 242 244 245 246 248 252 254 255 255 254 254 253 252 252 254 253 250 250 251 255 258 260 261 262 263 264 264 262 261 261 262 263 263 261 259 258 257 259 260 260 260 262 263 265 267 267 264 261 261 264 267 266 265 265 265 264 261 257 256 256 251 244 244 249 252 253 256 258
230 226 228 231 234 234 233 232 231 232 234 234 233 233 233 235 238 239 241 242 244 245 245 246 249 251 251 252 253 253 254 254 256 257 257 256 257 260 262 263 263 262 262 262 264 265 265 265 265 265 265 265 264 263 262 262 263 263 263 262 261 261 262 264 266 267 266 265 266 268 267 265 263 263 264 261 255 252 253 251 244 244 250 251 249 253 258
235 230 230 231 234 236 237 235 232 231 231 233 234 234 234 236 238 240 243 244 245 247 247 247 247 247 248 249 250 252 253 256 259 260 260 259 260 263 265 265 265 264 263 263 264 265 266 266 266 266 266 266 266 266 267 267 268 269 268 267 265 263 261 261 263 264 265 265 266 267 267 264 258 257 260 259 256 256 257 254 247 247 250 250 247 250 256
246 242 239 237 236 238 240 240 238 235 234 233 234 235 236 236 238 240 243 245 246 247 248 248 247 245 244 245 247 249 252 255 257 257 258 260 261 262 263 264 264 264 263 264 265 266 267 268 269 269 269 268 268 269 269 270 270 271 271 271 271 269 266 264 264 264 265 265 265 266 266 264 261 260 259 257 257 258 260 256 250 248 249 251 252 253 256
255 254 251 247 244 242 242 243 241 240 239 238 237 238 239 240 241 243 245 246 247 248 248 247 245 243 242 242 244 246 249 252 253 254 255 257 258 259 260 262 264 265 265 266 267 268 269 271 271 272 272 272 272 272 273 273 272 273 273 273 273 273 272 270 269 268 268 267 266 265 265 265 265 264 262 260 258 258 257 255 250 247 248 253 256 256 256
257 258 258 257 254 250 249 248 245 243 242 243 242 242 243 244 245 246 248 248 247 247 246 245 243 241 240 240 242 244 247 249 251 253 255 256 257 258 260 262 265 266 267 268 269 270 271 272 274 275 276 276 276 275 275 275 274 274 274 274 273 273 273 274 274 274 272 270 268 267 265 265 264 263 263 262 260 258 256 254 251 248 248 253 258 258 257
259 258 258 259 258 257 258 257 254 251 249 249 251 251 251 251 250 250 251 251 249 247 246 245 243 240 239 239 241 243 246 249 251 253 255 256 257 259 261 263 264 265 266 268 269 270 271 272 273 274 274 274 274 274 275 275 275 274 274 274 273 273 274 276 277 277 275 272 270 267 265 264 262 261 261 260 259 257 255 253 251 249 249 254 258 258 256
262 261 260 260 259 259 261 260 257 255 254 254 256 257 257 256 255 254 254 254 253 250 248 247 245 243 242 242 243 244 247 249 251 253 254 256 257 259 260 262 263 264 266 267 268 269 270 270 271 271 271 272 272 273 273 274 274 273 273 273 273 274 275 277 277 277 275 272 269 266 263 261 259 258 258 257 257 256 255 254 252 250 251 252 253 253 253
267 268 268 266 263 260 260 259 258 258 258 258 259 259 258 258 257 256 255 254 254 253 252 250 248 248 248 247 247 247 248 249 251 253 255 256 258 259 260 261 262 263 264 265 266 267 268 268 268 269 269 270 271 272 272 272 272 272 272 272 272 273 273 274 274 273 272 271 269 267 264 261 258 257 255 255 254 254 255 256 257 256 254 251 250 250 252
268 270 271 270 268 265 263 260 259 258 259 260 261 260 260 259 259 259 258 257 256 256 256 256 255 254 254 254 253 253 252 253 253 254 256 257 258 259 260 261 261 262 263 264 265 265 265 266 266 267 268 269 269 269 270 270 270 270 270 271 271 272 272 272 271 269 267 267 268 267 266 263 260 258 255 252 252 252 251 251 256 261 259 255 253 254 256
265 268 269 270 271 271 268 265 262 261 261 262 262 261 260 260 261 262 262 262 261 260 260 260 260 260 259 259 259 259 259 258 258 258 258 258 258 259 259 260 261 262 262 263 264 265 265 266 266 267 268 268 269 269 269 269 269 270 270 270 271 271 272 271 271 269 266 265 265 264 264 263 262 259 255 252 251 251 249 247 247 250 252 254 255 255 257
260 262 264 267 269 270 270 269 266 264 263 263 262 261 262 262 262 263 262 262 262 261 261 260 261 261 261 261 261 261 260 260 259 259 258 258 258 258 258 259 260 261 262 263 264 264 265 266 266 267 268 269 269 270 270 270 270 270 270 270 270 270 270 270 270 269 267 265 264 262 261 261 261 260 258 255 253 253 252 248 245 245 247 252 255 255 254
254 255 258 261 264 266 268 268 266 263 261 261 260 262 263 263 262 261 261 261 261 260 260 260 260 260 260 261 261 260 260 259 259 258 258 258 258 258 258 259 260 261 262 263 264 265 265 266 267 267 268 269 269 270 270 271 270 270 270 271 271 270 270 270 270 270 269 268 266 263 260 259 259 259 258 256 254 253 252 250 248 248 249 252 254 253 253
250 253 256 259 261 262 264 265 264 261 260 260 260 261 261 261 261 261 261 261 261 261 261 260 260 260 261 261 261 261 261 261 260 260 260 260 260 260 260 261 262 262 263 264 265 265 266 267 267 268 268 269 269 269 270 270 269 269 270 270 270 270 270 270 270 271 271 270 269 267 264 259 257 256 255 254 254 252 250 249 249 249 252 256 256 254 253
251 253 254 255 257 259 260 261 261 260 261 261 261 261 260 260 261 261 261 261 262 262 263 263 263 263 263 263 263 263 264 264 264 264 264 264 264 264 264 264 265 265 265 266 266 267 267 267 267 268 268 268 268 269 269 269 269 268 268 268 268 267 267 268 268 268 268 268 268 268 267 264 260 257 254 253 253 253 252 251 250 247 248 253 256 256 255
252 253 254 254 254 255 256 258 259 260 261 262 262 262 262 262 262 262 262 262 262 262 263 263 264 264 264 264 265 265 265 266 266 267 267 267 268 268 268 268 268 268 268 268 268 268 268 268 268 268 268 267 268 268 269 269 268 268 268 268 267 267 266 266 267 267 267 268 267 267 267 266 264 261 258 255 254 254 253 253 253 250 247 246 250 253 254
253 254 255 255 254 254 254 256 258 260 261 262 263 263 263 264 264 264 263 263 263 264 264 264 264 265 265 265 266 266 267 267 267 267 268 268 269 269 269 270 270 271 271 271 270 270 270 270 269 269 269 269 270 271 272 271 270 269 268 267 267 267 267 268 268 268 268 268 268 268 267 266 265 264 262 260 258 256 254 253 253 253 252 251 251 252 253
254 255 256 256 256 256 256 257 258 259 260 261 262 262 262 263 264 264 264 264 264 264 264 264 264 264 264 264 265 265 265 266 266 266 267 267 268 269 269 270 271 272 273 273 273 272 272 272 272 272 273 273 274 275 276 275 274 272 270 269 269 268 268 268 268 268 268 267 268 268 267 266 265 264 263 262 261 259 258 257 256 255 256 256 256 256 257
254 255 256 256 257 258 259 259 260 261 262 263 263 264 264 264 265 265 265 266 266 266 267 267 267 267 267 268 268 269 269 270 271 272 272 273 273 274 275 276 276 277 277 277 276 276 276 277 277 277 278 278 278 277 276 274 273 271 270 269 269 268 268 267 267 266 266 265 265 265 265 265 265 264 263 262 262 261 260 260 260 259 259 258 257 257 258
254 255 256 256 257 258 259 260 261 262 263 265 266 266 267 267 268 268 269 269 270 271 271 272 272 273 273 273 273 274 275 275 276 276 277 277 277 277 277 277 278 279 279 280 280 280 280 279 279 279 279 279 278 276 274 273 271 269 268 267 267 266 266 266 266 266 265 264 263 262 261 261 262 262 261 260 259 259 259 259 259 259 259 258 257 256 256
256 256 257 258 259 259 259 260 260 261 262 263 263 264 264 264 264 264 264 264 264 264 264 264 264 265 265 265 266 266 267 268 269 271 272 273 274 274 274 275 277 278 279 280 280 279 279 279 278 278 277 277 276 276 274 273 271 270 269 268 267 266 265 264 264 264 264 263 262 261 260 259 258 258 258 256 255 255 257 258 259 259 258 258 259 259 259
257 258 259 259 260 261 261 262 262 263 263 263 263 262 261 260 258 258 258 258 257 257 258 258 259 260 261 262 263 264 266 268 269 271 272 273 274 274 275 275 276 277 278 278 278 278 277 277 277 276 276 275 275 275 274 274 273 271 270 269 268 267 266 264 263 262 262 261 261 260 260 259 257 256 255 253 253 253 253 252 253 254 254 253 254 255 256
261 262 263 264 265 265 266 265 265 264 264 264 264 264 263 262 261 260 260 260 260 261 261 262 263 264 265 266 266 267 269 270 271 272 272 272 272 273 274 275 275 276 276 276 276 277 277 277 276 276 276 275 275 274 273 273 272 271 269 268 267 266 265 264 262 261 260 259 259 258 258 257 257 256 255 253 251 251 250 247 246 245 244 244 246 249 252
267 268 268 268 268 268 268 267 266 266 266 267 267 267 267 267 266 266 265 265 265 266 266 266 267 267 268 268 269 269 269 270 271 271 271 271 271 273 274 275 275 277 278 278 279 279 279 279 279 279 278 278 277 275 274 272 271 269 268 266 265 263 263 262 261 259 258 257 257 256 256 255 255 254 254 253 251 249 248 246 244 242 240 238 239 242 245
268 268 267 265 265 265 265 266 266 267 268 269 269 269 270 269 269 269 269 269 269 270 271 271 271 271 271 271 271 271 272 273 273 273 274 275 276 277 278 278 280 281 281 281 281 280 280 280 280 281 282 282 282 281 279 276 272 269 266 265 263 262 261 261 260 259 258 256 255 255 254 253 252 252 252 251 250 248 247 245 243 242 241 239 237 238 239
270 268 267 266 265 265 265 266 267 268 269 269 270 270 270 271 271 272 273 274 275 275 276 276 276 276 276 276 277 277 277 277 278 278 279 280 280 281 282 283 283 282 280 279 278 278 279 280 283 286 287 288 289 290 289 287 282 276 271 266 263 262 261 261 260 259 258 256 255 253 253 252 251 250 249 249 248 247 246 244 242 241 241 240 239 240 240
275 273 271 270 269 268 269 269 270 271 271 272 272 272 273 275 277 278 280 281 281 281 281 282 282 282 282 282 282 281 281 280 281 281 281 281 282 282 282 281 279 276 276 277 279 281 283 286 289 291 292 293 295 295 296 296 295 290 283 274 268 264 262 261 259 258 258 256 254 252 252 251 250 248 247 246 246 245 244 243 241 240 240 240 240 241 242
278 276 275 274 273 272 271 272 273 274 274 275 276 278 280 282 284 285 286 286 286 286 286 286 285 285 285 284 282 280 279 279 280 280 280 281 281 281 279 277 277 278 279 281 284 287 291 293 294 295 295 297 299 299 297 296 294 292 290 285 278 271 266 262 260 257 255 255 254 252 251 250 250 248 247 245 244 243 243 242 240 239 239 239 238 239 241
281 278 277 276 276 275 275 276 277 278 279 280 282 283 285 287 288 289 289 289 289 288 288 287 285 284 282 278 275 275 277 279 279 278 278 279 280 280 280 281 283 284 285 286 289 293 295 297 298 298 300 303 305 306 306 303 300 298 295 292 288 283 276 269 263 258 255 253 251 250 250 250 249 249 247 246 244 242 241 241 240 238 236 236 237 237 238
280 278 278 278 279 279 280 280 281 281 282 283 285 287 289 291 292 293 293 292 291 289 287 285 283 279 273 270 273 277 281 279 275 274 278 284 290 291 292 292 292 292 293 293 294 297 300 302 303 304 307 310 313 317 319 317 316 314 312 309 305 299 290 280 270 262 256 252 250 249 248 247 247 247 246 244 243 241 240 239 238 234 230 229 230 230 231
281 280 280 281 281 281 281 281 281 282 283 285 288 291 293 294 295 295 295 293 291 289 285 282 277 271 268 272 278 281 277 266 260 271 291 305 310 308 303 299 296 296 297 297 299 303 308 311 310 311 312 313 315 319 322 321 319 317 318 319 318 313 307 296 280 266 257 252 249 248 247 247 246 245 244 241 239 238 237 235 233 230 226 222 216 210 213
282 280 279 279 279 279 280 280 281 283 285 288 291 293 295 296 297 297 296 294 291 286 281 276 269 266 269 275 276 265 250 235 238 284 315 325 325 319 312 305 301 298 296 296 302 311 319 323 323 323 321 318 316 318 320 321 318 316 317 321 321 319 316 308 290 270 257 250 247 246 247 248 246 243 241 238 236 233 231 229 226 222 219 215 209 203 206
281 279 278 277 277 278 279 281 283 284 287 289 291 294 296 297 298 297 296 292 287 280 275 268 259 256 259 258 243 235 233 229 249 298 323 334 334 333 333 330 322 310 299 296 307 324 336 344 345 338 331 326 322 321 322 322 319 317 320 327 330 329 325 319 301 272 252 245 244 243 245 246 245 243 239 235 230 226 224 222 220 214 209 205 202 204 211
280 279 278 278 278 279 281 281 283 284 287 289 292 294 296 297 297 295 292 286 279 274 271 262 248 242 240 231 218 217 221 238 279 299 316 334 350 0 4 360 349 331 311 302 317 341 354 360 1 354 345 337 330 329 332 329 321 320 327 337 344 343 339 333 316 266 239 234 235 239 241 241 241 239 235 230 225 220 217 216 215 209 203 198 197 201 210
281 281 281 281 281 281 281 282 283 284 287 290 292 294 296 294 291 289 285 279 273 271 267 253 240 232 224 212 203 198 189 165 316 295 300 350 16 16 13 10 7 356 336 322 334 353 360 2 4 3 357 350 346 349 352 344 329 327 338 351 359 1 358 346 316 283 256 235 231 237 241 238 235 233 230 224 219 214 211 210 210 205 198 194 194 199 207
285 284 283 282 282 281 280 280 282 284 287 289 291 293 292 287 283 283 282 277 272 268 259 246 240 233 220 207 198 186 163 133 86 20 307 315 351 2 6 7 7 6 4 3 7 7 2 358 359 1 1 1 2 3 3 356 342 339 351 4 12 18 21 15 343 305 280 252 239 236 237 238 237 235 230 223 219 215 211 208 206 201 195 192 193 201 211
288 286 284 282 280 279 278 278 280 282 286 289 290 289 283 276 275 281 284 281 272 262 251 245 245 241 227 215 207 193 169 153 121 41 333 304 314 329 341 351 357 3 12 18 20 17 10 1 356 356 1 9 14 12 7 3 359 359 7 15 22 29 34 35 28 14 338 274 244 239 245 245 238 233 231 228 223 217 209 204 202 199 194 192 193 201 214
289 286 283 281 278 275 274 275 277 281 285 287 287 281 272 266 269 278 284 281 269 257 249 248 249 250 246 233 219 203 191 196 203 238 329 322 325 326 323 325 336 354 11 19 21 20 16 8 0 356 0 13 22 21 15 13 17 20 21 23 27 33 38 41 41 40 38 36 38 29 341 267 238 230 224 209 198 194 193 194 193 191 189 190 195 203 216
289 285 282 280 276 273 271 273 276 281 284 285 281 272 261 256 261 271 276 273 263 255 253 250 249 256 265 248 221 203 201 217 226 238 280 305 321 327 320 311 317 338 5 18 20 21 20 14 8 7 10 16 23 25 22 20 23 27 29 30 32 35 38 41 44 46 48 50 51 47 42 41 154 180 164 154 153 156 161 167 170 170 174 182 192 204 216
290 285 282 279 276 272 270 273 276 280 281 279 274 263 251 246 252 264 268 264 256 253 254 252 249 254 260 234 210 202 209 226 233 243 267 285 301 315 318 315 317 329 352 11 16 19 21 19 16 17 20 21 23 24 24 23 23 26 30 34 38 41 41 42 43 47 51 54 55 55 56 61 93 137 145 143 141 143 146 149 153 157 165 178 192 206 215
290 285 281 278 275 271 270 273 277 279 278 273 266 255 245 239 243 255 263 260 253 251 252 251 246 241 226 206 202 210 223 233 239 249 261 271 285 301 312 320 323 324 333 357 11 14 17 20 21 22 24 25 26 28 29 30 30 29 29 32 35 38 38 39 41 46 52 56 59 62 66 74 99 132 145 143 141 145 150 153 157 164 174 187 201 207 202
289 285 282 279 276 273 271 273 275 276 274 267 258 249 241 236 238 247 255 256 250 247 246 242 236 228 216 207 209 218 229 237 245 252 259 267 282 295 305 312 314 312 316 340 6 11 10 13 19 23 25 26 29 32 34 36 37 35 31 29 29 29 29 30 33 37 46 55 62 67 71 79 96 125 145 150 151 155 159 162 167 174 184 194 197 192 187
290 288 285 283 281 276 272 271 272 271 268 262 253 245 240 236 236 240 246 248 245 242 239 235 228 223 220 219 221 225 231 238 246 253 262 273 285 291 296 300 301 301 308 325 349 4 7 6 9 17 23 25 28 32 37 41 42 40 37 33 31 30 29 28 27 29 35 45 56 67 74 80 89 105 125 142 154 164 171 177 183 189 192 189 186 185 188
291 290 288 285 282 277 271 269 269 267 262 256 249 243 239 236 235 235 237 237 236 235 235 234 231 228 227 227 228 231 234 238 245 252 261 271 276 278 280 283 287 294 307 320 332 348 359 2 5 11 17 20 23 28 34 39 42 43 42 41 40 40 39 38 36 36 36 39 46 56 68 77 85 95 108 120 132 144 156 168 177 182 183 182 183 184 186
291 289 287 284 280 276 272 267 265 261 255 249 244 240 237 235 235 234 232 229 227 227 228 229 231 232 230 228 227 229 230 231 233 239 246 252 256 258 260 264 272 288 306 318 327 337 345 350 354 1 7 11 14 19 24 29 35 40 42 43 44 44 45 47 49 51 52 51 51 53 60 67 74 83 95 107 120 131 142 153 163 169 175 178 181 182 184
289 286 284 282 279 276 271 265 259 254 248 244 239 236 234 233 234 233 231 227 223 222 223 223 223 225 226 223 218 216 216 216 218 223 229 235 239 244 249 253 260 273 289 303 316 326 332 335 340 347 354 360 4 8 10 14 20 27 34 39 41 42 44 47 50 53 57 60 64 67 72 76 79 81 85 92 105 122 138 152 162 171 178 186 191 196 201
288 283 280 279 277 274 270 264 257 249 244 240 236 233 232 231 232 232 230 226 222 219 219 218 217 218 221 221 217 212 210 211 212 216 219 222 228 237 245 248 250 257 269 281 296 311 321 326 331 336 341 346 352 356 359 2 5 8 14 22 29 35 39 43 46 50 53 57 61 65 72 80 89 99 112 129 151 169 180 189 197 202 206 210 212 211 210
290 286 281 277 275 272 268 263 256 249 243 240 236 232 229 228 229 229 228 225 221 218 217 217 216 216 217 218 217 214 213 212 212 213 216 218 222 231 241 246 248 251 258 266 276 290 304 314 320 325 330 333 337 341 345 348 351 353 356 1 7 15 23 29 35 41 47 53 57 60 65 70 77 84 92 105 129 166 189 200 204 206 207 204 201 196 192
287 287 284 278 273 269 266 261 255 250 245 241 236 231 227 226 226 227 226 224 220 218 217 218 218 218 218 218 218 218 218 218 217 218 220 222 225 230 239 244 247 249 255 261 267 274 283 292 301 310 317 323 327 330 334 337 339 341 343 346 348 352 358 4 10 15 24 34 43 51 57 63 70 76 82 88 96 113 147 176 186 188 187 187 186 185 184
285 286 284 279 272 268 265 261 256 251 247 242 237 231 227 225 225 225 225 223 221 220 220 220 221 222 222 222 222 223 225 227 227 227 229 231 234 238 242 245 247 250 254 260 265 270 275 282 290 298 305 312 318 323 326 329 332 334 336 337 337 338 339 341 345 348 352 358 3 10 19 32 47 62 76 87 97 110 130 156 175 184 187 188 189 190 191
287 288 286 282 276 270 266 263 259 253 248 242 237 231 227 224 224 225 225 224 223 222 222 223 224 226 227 228 229 230 230 232 235 237 239 242 245 248 250 251 251 252 254 258 262 267 272 278 286 294 301 307 312 317 320 323 327 330 332 334 335 335 334 332 331 329 329 328 329 330 333 336 338 343 353 14 80 125 148 165 179 187 193 197 201 204 206
291 289 287 285 280 274 268 264 260 255 249 244 237 231 226 224 224 224 225 225 225 224 224 224 225 228 230 232 234 235 236 237 239 242 246 249 251 254 255 257 258 258 259 261 264 266 270 275 282 290 296 302 307 312 316 319 322 325 328 331 333 334 334 334 331 327 322 316 312 308 306 303 300 296 289 281 272 263 254 245 234 225 219 216 216 217 219
Height
5659 5660 5662 5663 5665 5666 5668 5669 5671 5672 5673 5674 5676 5678 5680 5681 5683 5684 5685 5686 5687 5689 5690 5691 5692 5693 5694 5695 5696 5697 5698 5699 5700 5701 5702 5703 5704 5705 5705 5706 5707 5708 5708 5709 5709 5710 5710 5711 5712 5713 5713 5714 5715 5715 5716 5716 5717 5717 5718 5718 5718 5719 5719 5720 5720 5721 5722 5722 5722 5722 5722 5723 5723 5723 5722 5721 5720 5720 5720 5720 5720 5720 5720 5721 5722 5723 5723
5655 5656 5657 5659 5660 5662 5663 5664 5666 5667 5669 5670 5672 5674 5676 5677 5679 5680 5681 5682 5683 5684 5686 5687 5689 5689 5690 5691 5692 5693 5694 5695 5696 5697 5698 5699 5699 5700 5701 5702 5703 5704 5704 5705 5705 5706 5706 5707 5707 5708 5709 5709 5710 5710 5711 5711 5712 5712 5713 5714 5714 5715 5716 5716 5716 5717 5717 5718 5718 5718 5719 5720 5720 5720 5719 5718 5717 5717 5717 5717 5716 5717 5717 5718 5719 5719 5719
5651 5652 5653 5654 5656 5657 5658 5659 5661 5662 5663 5665 5667 5669 5671 5673 5674 5676 5677 5678 5679 5680 5682 5683 5685 5686 5686 5687 5688 5689 5690 5691 5692 5693 5694 5694 5695 5696 5697 5697 5698 5699 5700 5701 5701 5702 5702 5703 5703 5704 5704 5704 5705 5705 5706 5706 5706 5707 5708 5708 5709 5710 5711 5712 5712 5712 5712 5713 5713 5713 5714 5715 5716 5716 5715 5714 5713 5713 5714 5713 5713 5714 5714 5715 5715 5715 5714
5648 5650 5650 5651 5653 5653 5654 5656 5658 5659 5660 5661 5662 5664 5665 5667 5669 5671 5672 5673 5675 5676 5677 5679 5680 5681 5682 5683 5684 5685 5686 5687 5688 5689 5689 5690 5691 5691 5692 5693 5694 5694 5695 5696 5697 5697 5698 5698 5698 5699 5699 5699 5700 5700 5700 5701 5701 5701 5702 5702 5702 5703 5705 5706 5706 5706 5707 5707 5708 5708 5708 5709 5710 5710 5710 5710 5709 5709 5709 5710 5710 5711 5711 5711 5712 5712 5711
5644 5646 5647 5648 5649 5649 5651 5653 5655 5656 5657 5658 5659 5660 5661 5663 5665 5667 5668 5669 5670 5672 5673 5674 5675 5676 5677 5678 5679 5680 5681 5682 5683 5684 5684 5685 5686 5687 5687 5688 5688 5689 5690 5690 5691 5691 5692 5692 5692 5693 5693 5693 5694 5694 5694 5695 5695 5695 5695 5696 5696 5696 5697 5699 5699 5700 5700 5701 5701 5702 5702 5703 5704 5704 5704 5704 5704 5705 5705 5706 5706 5706 5707 5707 5708 5708 5708
5640 5641 5642 5643 5644 5646 5649 5651 5652 5653 5653 5654 5655 5657 5658 5659 5661 5663 5663 5664 5665 5666 5667 5668 5669 5670 5671 5672 5673 5674 5676 5677 5678 5678 5679 5679 5680 5681 5682 5682 5683 5683 5684 5684 5685 5685 5685 5686 5686 5686 5687 5687 5687 5687 5688 5688 5689 5689 5689 5689 5690 5690 5690 5691 5692 5693 5693 5694 5694 5695 5696 5697 5697 5698 5698 5698 5699 5700 5701 5701 5702 5702 5702 5703 5703 5703 5703
5636 5637 5638 5638 5640 5643 5646 5646 5648 5648 5649 5650 5651 5652 5653 5655 5657 5658 5659 5659 5660 5661 5661 5663 5663 5664 5665 5666 5667 5668 5669 5671 5671 5672 5673 5673 5674 5675 5675 5676 5676 5677 5677 5678 5678 5679 5679 5679 5680 5680 5680 5680 5680 5681 5681 5682 5682 5683 5683 5683 5683 5683 5684 5685 5685 5686 5687 5687 5687 5688 5689 5690 5691 5691 5692 5692 5693 5694 5695 5696 5696 5696 5696 5696 5697 5697 5697
5630 5631 5633 5634 5637 5639 5640 5641 5643 5644 5645 5646 5646 5647 5649 5650 5651 5653 5654 5655 5656 5656 5656 5657 5658 5659 5659 5660 5661 5662 5663 5664 5665 5666 5667 5667 5668 5668 5669 5669 5670 5670 5671 5671 5671 5672 5672 5673 5673 5673 5673 5673 5673 5673 5674 5674 5675 5675 5676 5676 5676 5677 5677 5677 5678 5679 5679 5680 5681 5681 5682 5682 5683 5685 5686 5686 5687 5688 5689 5689 5689 5690 5690 5690 5691 5691 5692
5624 5625 5627 5629 5631 5633 5635 5636 5638 5639 5639 5640 5641 5642 5644 5645 5646 5648 5649 5650 5651 5651 5652 5652 5653 5654 5654 5654 5655 5656 5657 5658 5659 5660 5661 5661 5662 5662 5663 5663 5663 5664 5664 5664 5664 5665 5666 5666 5666 5666 5666 5666 5666 5666 5666 5667 5667 5667 5668 5669 5669 5670 5670 5671 5671 5672 5672 5673 5673 5674 5675 5676 5676 5678 5679 5680 5681 5682 5683 5683 5683 5683 5683 5684 5684 5685 5686
5619 5620 5621 5622 5624 5627 5630 5632 5632 5633 5634 5634 5635 5637 5638 5640 5641 5642 5643 5644 5645 5646 5647 5647 5648 5649 5649 5649 5650 5651 5652 5653 5653 5654 5655 5655 5656 5656 5656 5657 5657 5657 5657 5657 5657 5658 5658 5658 5658 5658 5658 5658 5658 5658 5658 5659 5659 5659 5660 5661 5662 5663 5663 5664 5665 5665 5665 5666 5666 5667 5668 5669 5670 5671 5672 5673 5673 5675 5676 5677 5678 5679 5678 5677 5678 5680 5681
5615 5616 5616 5616 5618 5620 5623 5625 5627 5628 5628 5629 5630 5631 5632 5635 5636 5636 5637 5638 5639 5640 5640 5641 5642 5642 5642 5643 5644 5645 5645 5646 5647 5647 5648 5648 5648 5649 5649 5649 5650 5650 5650 5650 5650 5650 5650 5650 5650 5650 5650 5650 5650 5650 5650 5651 5651 5652 5652 5652 5653 5654 5655 5655 5656 5657 5658 5658 5659 5660 5661 5662 5663 5664 5665 5666 5667 5668 5669 5671 5672 5673 5672 5671 5672 5675 5677
5611 5612 5612 5613 5614 5615 5617 5619 5621 5622 5623 5623 5624 5625 5627 5630 5630 5629 5631 5632 5632 5633 5634 5634 5635 5635 5636 5637 5637 5638 5638 5639 5639 5640 5640 5641 5641 5641 5642 5642 5642 5642 5642 5642 5642 5642 5642 5642 5642 5642 5642 5642 5642 5642 5643 5643 5643 5643 5643 5644 5644 5645 5645 5646 5646 5647 5649 5650 5651 5653 5654 5654 5655 5657 5658 5659 5660 5661 5662 5664 5665 5665 5665 5665 5665 5668 5672
5607 5607 5607 5609 5610 5611 5612 5614 5615 5616 5617 5617 5619 5620 5622 5623 5623 5623 5625 5625 5626 5627 5628 5628 5629 5629 5629 5630 5631 5631 5631 5632 5632 5633 5633 5633 5634 5634 5634 5634 5635 5635 5635 5635 5634 5634 5634 5634 5634 5634 5634 5634 5633 5634 5634 5634 5634 5634 5635 5635 5636 5636 5636 5637 5637 5638 5640 5641 5642 5644 5646 5647 5648 5649 5651 5652 5653 5654 5655 5656 5658 5658 5659 5659 5660 5661 5663
5602 5602 5603 5605 5606 5607 5608 5609 5610 5611 5611 5612 5614 5615 5616 5616 5617 5618 5619 5619 5620 5621 5621 5622 5622 5623 5623 5624 5624 5624 5625 5625 5625 5625 5626 5626 5626 5626 5627 5627 5627 5628 5627 5627 5626 5626 5626 5625 5625 5625 5625 5625 5625 5625 5625 5625 5625 5626 5626 5627 5627 5628 5628 5628 5629 5629 5630 5632 5633 5635 5637 5639 5640 5642 5643 5644 5646 5647 5648 5649 5651 5653 5655 5654 5654 5654 5655
5596 5597 5598 5599 5601 5603 5603 5604 5604 5605 5606 5607 5609 5609 5610 5610 5611 5611 5612 5613 5614 5614 5615 5615 5616 5616 5617 5617 5617 5617 5617 5617 5617 5617 5617 5618 5618 5618 5619 5619 5619 5620 5620 5619 5618 5618 5617 5617 5617 5616 5617 5617 5617 5617 5617 5616 5616 5617 5617 5618 5619 5620 5620 5620 5621 5621 5622 5623 5624 5626 5627 5629 5631 5633 5635 5637 5638 5639 5641 5642 5644 5648 5650 5648 5647 5647 5648
5590 5591 5592 5593 5596 5597 5598 5598 5599 5599 5600 5601 5602 5603 5603 5604 5604 5605 5606 5607 5607 5608 5608 5608 5609 5609 5610 5610 5610 5610 5610 5610 5610 5609 5609 5609 5609 5610 5610 5610 5610 5611 5611 5611 5611 5610 5609 5608 5608 5608 5607 5608 5608 5608 5608 5607 5607 5607 5608 5608 5609 5610 5611 5612 5612 5613 5613 5614 5616 5617 5618 5620 5621 5623 5625 5628 5629 5631 5633 5635 5636 5639 5641 5641 5640 5640 5640
5584 5584 5585 5587 5589 5591 5592 5593 5593 5594 5594 5595 5596 5597 5597 5597 5598 5599 5599 5600 5601 5601 5601 5601 5602 5602 5602 5602 5602 5602 5602 5602 5601 5601 5601 5601 5601 5601 5602 5601 5601 5602 5602 5602 5602 5601 5600 5599 5598 5598 5598 5598 5598 5598 5598 5598 5597 5598 5599 5599 5599 5600 5601 5602 5603 5603 5604 5605 5606 5607 5609 5611 5612 5614 5616 5618 5620 5622 5624 5626 5628 5629 5631 5632 5633 5633 5634
5578 5579 5579 5581 5583 5584 5585 5586 5587 5587 5588 5589 5589 5590 5590 5591 5591 5592 5592 5593 5593 5594 5594 5594 5594 5595 5595 5595 5595 5595 5595 5594 5594 5594 5594 5594 5594 5594 5594 5594 5594 5594 5594 5593 5593 5593 5592 5590 5589 5589 5588 5588 5589 5589 5589 5588 5587 5587 5588 5589 5590 5591 5591 5592 5593 5594 5595 5596 5597 5597 5599 5601 5603 5605 5606 5608 5610 5613 5615 5617 5619 5620 5622 5623 5625 5626 5627
5573 5573 5574 5575 5577 5578 5579 5580 5580 5581 5581 5582 5583 5583 5584 5584 5585 5586 5586 5586 5586 5586 5587 5587 5587 5587 5587 5588 5588 5588 5587 5587 5586 5586 5586 5586 5587 5587 5586 5586 5586 5585 5585 5585 5584 5584 5583 5582 5581 5580 5579 5578 5579 5579 5579 5578 5577 5577 5577 5577 5579 5580 5580 5581 5582 5583 5585 5586 5587 5588 5589 5591 5593 5595 5597 5598 5600 5603 5606 5608 5609 5611 5613 5615 5616 5618 5619
5568 5568 5569 5570 5571 5572 5573 5574 5575 5575 5576 5576 5577 5577 5578 5579 5579 5580 5580 5580 5580 5580 5580 5580 5580 5580 5580 5580 5580 5580 5580 5579 5579 5579 5579 5579 5579 5579 5578 5577 5577 5577 5577 5576 5576 5575 5575 5573 5572 5571 5569 5568 5567 5566 5566 5566 5566 5566 5566 5566 5567 5568 5569 5569 5570 5572 5573 5574 5576 5578 5579 5581 5584 5585 5588 5591 5592 5593 5595 5598 5600 5602 5604 5606 5608 5609 5610
5564 5564 5565 5566 5566 5567 5568 5569 5570 5570 5571 5571 5572 5572 5573 5574 5574 5575 5575 5575 5575 5575 5575 5575 5575 5575 5575 5575 5575 5575 5574 5573 5572 5573 5573 5573 5572 5571 5570 5569 5569 5569 5568 5568 5567 5566 5565 5564 5563 5561 5559 5558 5556 5555 5554 5554 5554 5554 5554 5554 5555 5556 5557 5558 5559 5560 5561 5562 5564 5566 5568 5571 5574 5575 5578 5582 5583 5583 5586 5590 5591 5593 5596 5597 5600 5601 5602
5560 5560 5561 5562 5562 5563 5564 5564 5565 5566 5566 5567 5567 5568 5569 5569 5570 5570 5571 5571 5571 5571 5571 5571 5571 5570 5570 5570 5570 5569 5568 5567 5567 5567 5567 5566 5564 5563 5562 5562 5561 5560 5559 5559 5558 5557 5555 5554 5553 5551 5550 5548 5546 5545 5544 5543 5543 5543 5543 5543 5544 5544 5545 5546 5548 5548 5549 5550 5553 5554 5556 5559 5562 5564 5568 5572 5573 5575 5579 5582 5583 5585 5588 5590 5592 5594 5595
5557 5558 5558 5559 5559 5559 5560 5560 5561 5561 5562 5562 5563 5563 5564 5564 5565 5565 5565 5565 5565 5565 5565 5565 5564 5564 5563 5563 5563 5562 5561 5560 5561 5560 5559 5558 5557 5556 5555 5555 5554 5552 5551 5550 5549 5548 5546 5545 5543 5542 5540 5538 5537 5535 5533 5532 5531 5531 5530 5531 5532 5532 5532 5533 5535 5536 5537 5538 5540 5542 5544 5547 5549 5552 5556 5560 5563 5566 5569 5572 5574 5577 5580 5583 5585 5587 5588
5555 5555 5556 5556 5556 5556 5556 5557 5557 5557 5557 5558 5558 5558 5559 5559 5559 5559 5559 5559 5559 5558 5558 5558 5558 5557 5557 5556 5556 5555 5554 5553 5553 5552 5551 5550 5550 5549 5548 5547 5546 5545 5543 5542 5540 5538 5537 5535 5534 5532 5531 5529 5526 5525 5523 5521 5520 5519 5518 5518 5519 5520 5519 5520 5521 5523 5524 5526 5527 5529 5532 5535 5538 5540 5544 5548 5552 5556 5559 5561 5564 5567 5571 5575 5577 5580 5582
5553 5553 5553 5553 5553 5553 5553 5553 5553 5554 5554 5554 5554 5554 5554 5554 5554 5554 5553 5553 5553 5552 5552 5551 5551 5550 5550 5549 5548 5548 5547 5546 5545 5544 5543 5543 5542 5541 5540 5539 5538 5537 5535 5533 5532 5531 5529 5528 5527 5525 5523 5521 5518 5516 5513 5511 5509 5508 5507 5507 5507 5508 5508 5508 5509 5509 5511 5514 5515 5517 5519 5523 5526 5529 5533 5536 5540 5545 5548 5551 5554 5557 5560 5565 5568 5570 5573
5550 5550 5550 5550 5550 5550 5550 5550 5550 5550 5550 5550 5550 5550 5549 5549 5549 5548 5548 5548 5547 5547 5546 5545 5544 5543 5543 5542 5541 5540 5540 5538 5538 5537 5536 5535 5535 5534 5533 5532 5531 5530 5528 5527 5526 5525 5524 5523 5522 5520 5518 5515 5512 5510 5507 5503 5501 5499 5498 5497 5497 5498 5498 5499 5499 5499 5500 5502 5504 5506 5508 5510 5514 5518 5522 5525 5529 5534 5538 5540 5543 5546 5550 5555 5558 5562 5565
5546 5546 5546 5546 5546 5546 5546 5546 5546 5547 5546 5546 5546 5545 5545 5544 5544 5543 5543 5542 5542 5541 5540 5539 5538 5537 5536 5535 5535 5534 5533 5532 5531 5531 5530 5529 5528 5527 5527 5526 5525 5524 5523 5522 5522 5521 5520 5519 5517 5515 5513 5510 5508 5505 5502 5499 5496 5494 5492 5491 5490 5490 5491 5491 5491 5492 5492 5493 5494 5496 5498 5500 5503 5507 5511 5514 5517 5522 5526 5529 5533 5537 5541 5546 5550 5553 5555
5543 5543 5543 5542 5543 5543 5543 5543 5543 5543 5542 5542 5541 5541 5541 5540 5539 5539 5538 5537 5536 5535 5534 5533 5532 5531 5530 5530 5529 5528 5527 5527 5526 5525 5524 5524 5523 5523 5522 5522 5521 5521 5520 5519 5518 5517 5516 5515 5513 5511 5508 5506 5503 5501 5498 5495 5493 5491 5489 5487 5485 5485 5484 5484 5484 5485 5485 5485 5487 5488 5490 5492 5494 5497 5501 5504 5508 5512 5515 5518 5523 5528 5533 5537 5541 5544 5548
5539 5539 5539 5539 5539 5539 5539 5539 5539 5538 5538 5538 5537 5537 5536 5536 5535 5534 5534 5532 5531 5530 5529 5528 5527 5527 5526 5525 5524 5523 5523 5523 5522 5521 5521 5521 5520 5520 5519 5519 5518 5518 5517 5516 5515 5514 5513 5511 5509 5507 5504 5502 5500 5497 5495 5492 5490 5488 5486 5484 5482 5481 5480 5479 5478 5478 5478 5479 5480 5481 5483 5485 5487 5490 5493 5496 5500 5503 5506 5509 5514 5520 5524 5528 5533 5538 5543
5536 5536 5536 5535 5535 5535 5535 5535 5535 5534 5534 5534 5533 5533 5532 5532 5531 5530 5529 5528 5527 5526 5525 5524 5524 5523 5522 5521 5521 5520 5520 5520 5519 5519 5519 5518 5518 5518 5517 5516 5516 5515 5514 5513 5512 5511 5510 5508 5506 5504 5502 5499 5497 5495 5493 5491 5488 5486 5484 5482 5480 5478 5476 5474 5473 5472 5472 5473 5474 5475 5477 5479 5481 5484 5487 5490 5493 5495 5498 5502 5507 5511 5516 5520 5526 5533 5538
5533 5533 5533 5532 5532 5532 5532 5531 5531 5531 5530 5530 5530 5529 5528 5528 5527 5526 5525 5524 5523 5522 5521 5521 5520 5520 5519 5519 5519 5519 5518 5518 5518 5518 5518 5517 5517 5516 5515 5514 5513 5512 5512 5511 5510 5509 5507 5505 5503 5501 5499 5497 5495 5494 5492 5489 5487 5485 5483 5480 5478 5475 5473 5470 5468 5467 5467 5468 5469 5470 5471 5473 5475 5478 5481 5484 5487 5489 5492 5496 5500 5504 5509 5514 5519 5525 5530
5530 5530 5530 5529 5529 5528 5528 5528 5528 5527 5527 5526 5526 5525 5525 5524 5523 5522 5521 5520 5519 5519 5518 5518 5518 5517 5517 5517 5517 5517 5517 5517 5517 5517 5517 5516 5516 5515 5514 5513 5512 5511 5510 5509 5508 5507 5505 5503 5501 5499 5497 5496 5494 5492 5490 5488 5486 5483 5481 5479 5476 5472 5469 5466 5463 5462 5462 5463 5464 5466 5467 5468 5470 5472 5475 5477 5481 5484 5487 5490 5493 5497 5503 5508 5513 5518 5523
5527 5527 5526 5526 5526 5525 5525 5525 5524 5524 5524 5523 5523 5522 5521 5520 5519 5518 5517 5517 5517 5516 5516 5516 5516 5516 5516 5516 5516 5516 5516 5517 5517 5517 5516 5516 5515 5514 5513 5512 5511 5510 5509 5508 5507 5505 5503 5501 5499 5497 5496 5494 5492 5491 5489 5487 5484 5482 5479 5477 5473 5469 5465 5461 5458 5458 5459 5460 5461 5462 5463 5464 5466 5467 5469 5472 5475 5478 5481 5484 5487 5491 5496 5501 5508 5514 5517
5524 5524 5523 5523 5523 5522 5522 5522 5521 5521 5521 5520 5520 5519 5518 5517 5516 5515 5515 5515 5515 5515 5515 5515 5514 5515 5515 5515 5515 5515 5516 5516 5516 5516 5515 5515 5514 5514 5513 5511 5510 5509 5508 5507 5505 5504 5502 5500 5498 5496 5495 5493 5491 5489 5487 5485 5483 5481 5478 5475 5472 5467 5463 5459 5457 5457 5457 5458 5459 5460 5461 5461 5462 5464 5465 5467 5470 5473 5476 5479 5482 5486 5490 5496 5503 5508 5510
5521 5521 5520 5520 5520 5519 5519 5519 5519 5518 5518 5517 5517 5516 5515 5514 5514 5513 5513 5513 5513 5513 5513 5513 5513 5514 5514 5514 5515 5515 5515 5515 5515 5515 5514 5514 5514 5513 5512 5511 5510 5509 5507 5506 5504 5502 5500 5499 5497 5496 5495 5493 5491 5489 5486 5485 5483 5481 5478 5475 5471 5466 5462 5460 5459 5458 5458 5458 5458 5459 5459 5459 5460 5461 5462 5464 5466 5469 5471 5474 5478 5482 5487 5493 5499 5503 5505
5519 5518 5517 5517 5517 5516 5516 5516 5516 5515 5515 5514 5514 5513 5513 5512 5512 5511 5511 5511 5511 5511 5511 5511 5512 5512 5513 5513 5514 5514 5515 5515 5514 5514 5514 5513 5513 5513 5512 5511 5510 5509 5507 5505 5503 5501 5500 5498 5497 5496 5494 5493 5490 5488 5486 5485 5483 5481 5478 5475 5471 5467 5464 5461 5460 5459 5458 5458 5458 5458 5458 5458 5459 5459 5460 5461 5463 5465 5468 5471 5475 5479 5483 5489 5495 5499 5502
5516 5515 5515 5514 5514 5514 5513 5513 5513 5513 5512 5512 5511 5511 5510 5510 5510 5509 5509 5509 5509 5509 5510 5510 5511 5511 5512 5512 5513 5514 5514 5514 5514 5513 5513 5513 5512 5512 5511 5511 5510 5509 5507 5505 5502 5501 5499 5498 5497 5496 5494 5492 5490 5488 5487 5485 5483 5482 5479 5476 5473 5470 5466 5463 5461 5459 5458 5457 5457 5457 5457 5457 5457 5457 5458 5459 5460 5463 5465 5468 5472 5476 5480 5485 5490 5495 5497
5513 5512 5512 5511 5511 5511 5511 5511 5510 5510 5509 5509 5508 5508 5508 5508 5508 5508 5507 5507 5507 5508 5508 5509 5509 5510 5511 5511 5512 5512 5513 5513 5513 5513 5512 5512 5512 5512 5511 5510 5510 5509 5507 5505 5503 5501 5500 5498 5497 5496 5494 5492 5490 5489 5487 5486 5484 5482 5480 5477 5475 5472 5469 5466 5463 5461 5459 5458 5457 5457 5456 5455 5455 5455 5455 5456 5458 5460 5463 5466 5469 5473 5478 5483 5488 5492 5494
5510 5509 5509 5509 5508 5508 5508 5508 5507 5507 5507 5506 5506 5506 5506 5506 5506 5506 5506 5506 5506 5506 5507 5508 5508 5509 5510 5510 5510 5511 5511 5511 5512 5512 5511 5511 5511 5511 5510 5510 5509 5508 5507 5505 5503 5502 5500 5499 5498 5496 5494 5492 5490 5489 5488 5486 5485 5483 5480 5478 5476 5474 5471 5469 5466 5464 5462 5460 5459 5458 5456 5455 5454 5454 5456 5457 5459 5462 5465 5467 5470 5474 5479 5485 5489 5492 5494
5507 5506 5506 5506 5506 5505 5505 5505 5505 5504 5504 5504 5504 5504 5504 5504 5505 5505 5505 5505 5505 5505 5506 5506 5507 5508 5508 5508 5509 5509 5510 5510 5511 5511 5510 5510 5510 5510 5509 5509 5508 5507 5506 5505 5504 5503 5501 5500 5498 5496 5494 5492 5491 5489 5488 5487 5485 5483 5481 5480 5478 5476 5474 5472 5470 5467 5465 5463 5462 5460 5459 5457 5456 5457 5459 5462 5464 5467 5469 5472 5475 5478 5482 5486 5490 5491 5493
5504 5504 5503 5503 5503 5503 5503 5502 5502 5502 5502 5502 5502 5502 5502 5502 5503 5503 5503 5503 5504 5504 5504 5505 5506 5507 5507 5507 5508 5509 5509 5509 5509 5509 5509 5509 5509 5509 5508 5508 5507 5506 5506 5505 5504 5503 5502 5500 5499 5497 5495 5493 5491 5490 5488 5487 5486 5484 5482 5481 5479 5477 5476 5474 5472 5470 5469 5467 5465 5464 5463 5462 5461 5463 5465 5467 5469 5471 5473 5476 5479 5482 5485 5487 5489 5491 5492
5501 5501 5500 5500 5500 5500 5500 5500 5500 5500 5499 5499 5499 5500 5500 5500 5501 5501 5502 5502 5502 5503 5503 5504 5504 5505 5506 5506 5507 5507 5508 5508 5508 5508 5508 5508 5508 5507 5507 5507 5506 5505 5505 5504 5503 5502 5502 5500 5499 5498 5496 5494 5493 5491 5489 5488 5486 5485 5483 5482 5480 5479 5477 5476 5474 5473 5472 5470 5469 5468 5467 5467 5467 5468 5470 5471 5473 5475 5477 5479 5481 5483 5486 5487 5489 5490 5491
5498 5498 5497 5497 5497 5497 5497 5497 5497 5497 5497 5497 5497 5498 5498 5498 5499 5500 5500 5500 5501 5501 5502 5502 5503 5504 5504 5505 5505 5506 5506 5506 5507 5507 5507 5506 5506 5506 5506 5505 5505 5504 5504 5503 5502 5502 5501 5500 5499 5498 5497 5496 5494 5493 5491 5489 5487 5486 5484 5483 5481 5480 5478 5477 5476 5475 5474 5473 5472 5472 5472 5472 5472 5472 5473 5474 5476 5477 5479 5481 5482 5484 5486 5487 5488 5490 5491
5496 5495 5495 5495 5494 5494 5495 5495 5495 5495 5495 5495 5495 5496 5496 5496 5497 5498 5498 5499 5499 5499 5500 5501 5501 5502 5502 5503 5503 5504 5504 5504 5505 5505 5505 5505 5505 5505 5504 5504 5503 5503 5502 5502 5501 5501 5500 5500 5499 5498 5497 5496 5495 5494 5492 5491 5489 5488 5486 5485 5483 5481 5480 5479 5478 5477 5476 5475 5475 5475 5475 5475 5475 5476 5476 5477 5478 5479 5481 5482 5483 5485 5486 5487 5489 5490 5491
5493 5493 5492 5492 5492 5492 5492 5492 5493 5493 5493 5493 5493 5494 5494 5495 5495 5496 5496 5497 5497 5498 5498 5499 5499 5500 5500 5501 5501 5502 5502 5502 5503 5503 5503 5503 5503 5503 5503 5503 5502 5502 5501 5501 5501 5500 5500 5499 5498 5498 5497 5496 5496 5495 5494 5492 5491 5490 5488 5487 5485 5484 5483 5481 5480 5479 5478 5477 5477 5477 5477 5477 5477 5478 5479 5479 5480 5481 5482 5483 5484 5485 5487 5488 5489 5490 5491
5490 5490 5490 5490 5489 5489 5489 5490 5490 5490 5490 5490 5491 5491 5492 5492 5493 5494 5495 5495 5496 5496 5497 5497 5498 5498 5499 5499 5500 5500 5500 5501 5501 5502 5502 5502 5502 5502 5502 5502 5502 5501 5501 5500 5500 5500 5499 5499 5498 5497 5497 5496 5495 5495 5494 5493 5492 5491 5490 5489 5488 5487 5485 5484 5483 5482 5481 5480 5479 5479 5479 5479 5479 5480 5480 5481 5481 5482 5483 5484 5485 5486 5487 5488 5489 5490 5491
5487 5487 5487 5487 5487 5487 5487 5487 5487 5487 5487 5488 5488 5489 5490 5490 5491 5492 5493 5493 5494 5494 5495 5496 5496 5497 5498 5498 5498 5499 5499 5500 5500 5500 5501 5501 5501 5501 5501 5501 5501 5501 5500 5500 5499 5499 5498 5498 5497 5497 5496 5495 5495 5494 5494 5493 5492 5492 5491 5490 5489 5489 5488 5486 5485 5484 5483 5483 5482 5481 5481 5481 5481 5481 5482 5482 5482 5483 5484 5484 5485 5486 5487 5488 5489 5490 5491
5484 5484 5484 5484 5484 5484 5484 5484 5484 5484 5484 5484 5485 5486 5487 5488 5489 5490 5490 5491 5492 5493 5493 5494 5495 5496 5496 5497 5497 5497 5498 5498 5498 5499 5499 5499 5500 5500 5500 5500 5500 5500 5500 5499 5499 5498 5498 5497 5497 5496 5496 5495 5495 5494 5493 5493 5492 5492 5491 5490 5490 5489 5489 5488 5487 5487 5486 5485 5485 5484 5483 5483 5483 5483 5483 5483 5484 5484 5484 5485 5485 5486 5487 5488 5489 5490 5491
5481 5481 5481 5481 5481 5481 5481 5481 5481 5481 5481 5482 5482 5483 5484 5485 5486 5487 5488 5489 5490 5490 5491 5492 5493 5494 5494 5495 5496 5496 5496 5497 5497 5497 5498 5498 5498 5498 5499 5499 5499 5499 5499 5498 5498 5498 5497 5497 5497 5496 5496 5495 5494 5494 5493 5493 5492 5491 5491 5490 5490 5489 5489 5488 5488 5488 5487 5487 5486 5486 5486 5485 5485 5485 5485 5485 5485 5485 5486 5486 5486 5487 5488 5489 5490 5491 5492
5478 5478 5478 5478 5478 5478 5478 5478 5478 5478 5478 5479 5479 5480 5481 5482 5483 5484 5485 5486 5487 5488 5489 5490 5491 5491 5492 5493 5494 5494 5495 5495 5495 5496 5496 5496 5497 5497 5497 5497 5497 5497 5497 5497 5497 5497 5497 5496 5496 5496 5495 5495 5494 5494 5493 5492 5492 5491 5491 5490 5490 5489 5489 5488 5488 5488 5487 5487 5487 5487 5487 5487 5486 5486 5486 5486 5486 5487 5487 5487 5488 5488 5489 5490 5491 5491 5492
5475 5475 5474 5474 5474 5474 5474 5474 5475 5475 5475 5476 5476 5477 5478 5479 5480 5481 5482 5483 5484 5485 5486 5487 5488 5489 5490 5491 5491 5492 5493 5493 5494 5494 5494 5495 5495 5495 5495 5495 5495 5495 5495 5496 5496 5495 5495 5495 5495 5495 5494 5494 5493 5493 5493 5492 5492 5491 5491 5490 5489 5489 5488 5488 5488 5487 5487 5487 5487 5487 5487 5487 5487 5487 5487 5487 5487 5487 5487 5488 5488 5489 5489 5490 5491 5491 5492
5472 5472 5471 5471 5471 5471 5471 5471 5471 5471 5471 5472 5473 5473 5474 5475 5476 5477 5478 5480 5481 5482 5483 5484 5485 5486 5487 5488 5489 5489 5490 5491 5491 5492 5492 5492 5493 5493 5493 5493 5493 5493 5493 5494 5494 5494 5494 5494 5493 5493 5493 5493 5492 5492 5492 5491 5491 5491 5490 5489 5489 5488 5488 5488 5487 5487 5487 5486 5486 5486 5486 5486 5486 5486 5487 5487 5487 5487 5487 5488 5488 5488 5489 5489 5490 5490 5491